Date String (YYYY-MM-DD hh:mm:ss) UTC,Instrument flags,Ambient pressure (hPa),Sample flow (lpm),Bypass flow (lpm),Sample temperature (°C),Ambient temperature (°C),ASC tube jacket temperature (°C),LED temperature (°C),Box temperature (°C),Sample RH (%),Span deviation,Mass concentration (μg/m³),Mass concentration (μg/m³),Mass concentration (μg/m³)
DateTimeUTC,F1_M11,P_M11,Q1_M11,Q2_M11,T1_M11,T2_M11,T3_M11,T4_M11,T5_M11,U1_M11,ZSPAN_M11,X0_M11,X2_M11,X1_M11
2021-09-05 12:00:00,,0830.5,5.02,0.00,30.2,29.2,00.0,39.4,31.9,08.7,0002.8,0016.07,0011.13,0010.66
2021-09-05 12:01:00,,0830.5,4.99,0.00,30.2,29.2,00.0,39.4,31.9,08.7,0002.7,0016.09,0011.15,0010.69
2021-09-05 12:02:00,,0830.5,4.99,0.00,30.2,29.2,00.0,39.4,31.9,08.6,0002.5,0016.21,0011.22,0010.74
2021-09-05 12:03:00,,0830.5,5.00,0.00,30.2,29.2,00.0,39.4,31.9,08.6,0002.7,0016.09,0011.22,0010.75
2021-09-05 12:04:00,,0830.5,5.00,0.00,30.2,29.2,00.0,39.4,31.9,08.6,0002.6,0015.64,0011.27,0010.78
2021-09-05 12:05:00,,0830.5,5.00,0.00,30.2,29.2,00.0,39.4,31.9,08.5,0002.9,0015.66,0011.29,0010.80
2021-09-05 12:06:00,,0830.5,5.01,0.00,30.2,29.2,00.0,39.4,31.9,08.5,0003.3,0015.62,0011.36,0010.86
2021-09-05 12:07:00,,0830.5,5.01,0.00,30.2,29.1,00.0,39.4,31.8,08.5,0003.3,0015.71,0011.47,0010.95
2021-09-05 12:08:00,,0830.5,4.99,0.00,30.2,29.1,00.0,39.4,31.8,08.5,0003.2,0015.90,0011.55,0011.02
2021-09-05 12:09:00,,0830.6,5.00,0.00,30.2,29.1,00.0,39.4,31.9,08.5,0003.2,0016.06,0011.62,0011.09
2021-09-05 12:10:00,,0830.6,5.01,0.00,30.2,29.1,00.0,39.4,31.9,08.6,0003.1,0015.68,0011.66,0011.13
2021-09-05 12:11:00,,0830.6,5.00,0.00,30.2,29.1,00.0,39.4,31.9,08.6,0003.5,0015.57,0011.69,0011.16
2021-09-05 12:12:00,,0830.6,5.00,0.00,30.2,29.1,00.0,39.4,31.9,08.9,0003.5,0015.68,0011.70,0011.15
2021-09-05 12:13:00,,0830.6,5.01,0.00,30.2,29.1,00.0,39.4,31.9,09.0,0003.3,0015.57,0011.63,0011.09
2021-09-05 12:14:00,,0830.6,4.99,0.00,30.2,29.1,00.0,39.4,31.9,09.0,0002.9,0015.50,0011.61,0011.07
2021-09-05 12:15:00,,0830.6,5.00,0.00,30.2,29.1,00.0,39.4,31.9,08.8,0002.9,0015.46,0011.55,0011.01
2021-09-05 12:16:00,,0830.6,5.01,0.00,30.2,29.1,00.0,39.4,31.9,08.7,0002.8,0015.43,0011.53,0010.99
2021-09-05 12:17:00,,0830.6,5.02,0.00,30.2,29.1,00.0,39.4,31.9,08.6,0002.5,0015.41,0011.51,0010.96
2021-09-05 12:18:00,,0830.6,4.99,0.00,30.2,29.1,00.0,39.4,31.9,08.5,0002.7,0015.30,0011.44,0010.89
2021-09-05 12:19:00,,0830.6,5.00,0.00,30.2,29.1,00.0,39.4,31.9,08.3,0002.6,0015.10,0011.37,0010.87
2021-09-05 12:20:00,,0830.6,5.01,0.00,30.2,29.1,00.0,39.4,31.9,08.3,0002.8,0015.19,0011.36,0010.85
2021-09-05 12:21:00,,0830.6,5.01,0.00,30.2,29.1,00.0,39.4,31.8,08.2,0002.1,0015.16,0011.36,0010.85
2021-09-05 12:22:00,,0830.6,5.00,0.00,30.2,29.0,00.0,39.4,31.8,08.2,0001.5,0015.19,0011.36,0010.84
2021-09-05 12:23:00,,0830.6,5.01,0.00,30.2,29.0,00.0,39.4,31.9,08.0,0001.2,0015.09,0011.37,0010.86
2021-09-05 12:24:00,,0830.7,4.99,0.00,30.2,29.1,00.0,39.4,31.8,08.0,0001.5,0015.19,0011.45,0010.92
2021-09-05 12:25:00,,0830.6,4.99,0.00,30.2,29.0,00.0,39.4,31.8,08.0,0001.8,0015.38,0011.55,0011.00
2021-09-05 12:26:00,,0830.7,5.00,0.00,30.2,29.0,00.0,39.4,31.8,08.0,0001.5,0015.47,0011.63,0011.07
2021-09-05 12:27:00,,0830.7,5.00,0.00,30.2,29.1,00.0,39.4,31.8,07.9,0001.4,0015.63,0011.70,0011.13
2021-09-05 12:28:00,,0830.7,4.99,0.00,30.2,29.1,00.0,39.4,31.9,07.9,0001.6,0015.74,0011.75,0011.19
2021-09-05 12:29:00,,0830.7,4.99,0.00,30.2,29.1,00.0,39.4,31.8,07.8,0001.5,0016.17,0011.82,0011.25
2021-09-05 12:30:00,,0830.7,5.00,0.00,30.2,29.2,00.0,39.4,31.9,07.9,0001.4,0016.32,0011.88,0011.29
2021-09-05 12:31:00,,0830.7,5.00,0.00,30.2,29.2,00.0,39.4,31.9,07.8,0001.3,0016.22,0011.90,0011.30
2021-09-05 12:32:00,,0830.7,5.00,0.00,30.2,29.1,00.0,39.4,31.8,07.9,0001.6,0016.16,0011.91,0011.33
2021-09-05 12:33:00,,0830.8,4.99,0.00,30.2,29.1,00.0,39.4,31.8,08.0,0002.0,0016.20,0011.96,0011.37
2021-09-05 12:34:00,,0830.8,5.00,0.00,30.2,29.1,00.0,39.4,31.8,08.1,0002.2,0016.34,0011.97,0011.39
2021-09-05 12:35:00,,0830.8,5.01,0.00,30.2,29.1,00.0,39.4,31.8,08.2,0002.3,0016.45,0012.04,0011.43
2021-09-05 12:36:00,,0830.8,4.99,0.00,30.2,29.1,00.0,39.4,31.8,08.2,0002.3,0016.79,0012.03,0011.44
2021-09-05 12:37:00,,0830.7,5.01,0.00,30.2,29.1,00.0,39.4,31.9,08.2,0002.5,0016.80,0012.04,0011.48
2021-09-05 12:38:00,,0830.7,5.00,0.00,30.2,29.1,00.0,39.4,31.8,08.3,0002.4,0016.69,0012.02,0011.49
2021-09-05 12:39:00,,0830.8,5.00,0.00,30.2,29.1,00.0,39.4,31.8,08.3,0002.5,0016.69,0012.01,0011.49
2021-09-05 12:40:00,,0830.8,5.00,0.00,30.2,29.1,00.0,39.4,31.8,08.3,0002.5,0016.38,0012.04,0011.53
2021-09-05 12:41:00,,0830.9,5.01,0.00,30.2,29.1,00.0,39.4,31.9,08.3,0002.8,0016.41,0012.09,0011.58
2021-09-05 12:42:00,,0830.9,4.99,0.00,30.2,29.1,00.0,39.4,31.9,08.4,0002.7,0016.52,0012.12,0011.62
2021-09-05 12:43:00,,0830.9,5.00,0.00,30.2,29.1,00.0,39.4,31.9,08.3,0002.8,0017.06,0012.19,0011.66
2021-09-05 12:44:00,,0830.9,4.99,0.00,30.2,29.1,00.0,39.4,31.9,08.2,0002.7,0017.11,0012.23,0011.69
2021-09-05 12:45:00,,0830.9,5.02,0.00,30.2,29.1,00.0,39.4,31.9,08.2,0002.8,0017.02,0012.27,0011.75
2021-09-05 12:46:00,,0830.9,5.00,0.00,30.2,29.1,00.0,39.4,31.8,08.1,0002.8,0017.10,0012.29,0011.79
2021-09-05 12:47:00,,0830.9,5.00,0.00,30.2,29.1,00.0,39.4,31.8,08.0,0003.0,0016.85,0012.37,0011.84
2021-09-05 12:48:00,,0830.9,4.99,0.00,30.2,29.1,00.0,39.4,31.8,08.0,0003.0,0016.99,0012.44,0011.90
2021-09-05 12:49:00,,0830.9,5.00,0.00,30.2,29.1,00.0,39.4,31.8,07.9,0003.1,0017.12,0012.53,0011.95
2021-09-05 12:50:00,,0830.9,5.02,0.00,30.2,29.1,00.0,39.4,31.9,08.0,0002.5,0017.19,0012.58,0012.00
2021-09-05 12:51:00,,0830.9,4.99,0.00,30.2,29.1,00.0,39.4,31.8,07.9,0002.2,0017.85,0012.67,0012.07
2021-09-05 12:52:00,,0830.9,5.02,0.00,30.2,29.1,00.0,39.4,31.8,08.1,0002.0,0018.48,0012.74,0012.11
2021-09-05 12:53:00,,0830.9,5.00,0.00,30.2,29.1,00.0,39.4,31.8,08.0,0002.1,0018.72,0012.83,0012.17
2021-09-05 12:54:00,,0830.9,5.01,0.00,30.2,29.1,00.0,39.4,31.9,08.0,0002.2,0018.62,0012.86,0012.21
2021-09-05 12:55:00,,0830.9,4.99,0.00,30.2,29.1,00.0,39.4,31.9,08.0,0002.2,0018.71,0012.87,0012.23
2021-09-05 12:56:00,,0830.9,5.00,0.00,30.2,29.1,00.0,39.4,31.8,07.9,0002.1,0018.75,0012.90,0012.26
2021-09-05 12:57:00,,0830.9,5.00,0.00,30.2,29.1,00.0,39.4,31.8,07.9,0001.8,0018.84,0012.93,0012.30
2021-09-05 12:58:00,,0830.9,5.01,0.00,30.2,29.1,00.0,39.4,31.9,07.9,0001.8,0019.76,0012.97,0012.32
2021-09-05 12:59:00,,0830.9,4.99,0.00,30.2,29.2,00.0,39.4,31.9,07.9,0001.6,0020.29,0012.98,0012.32
